Regional Weather Roundup
Issued by NWS Portland, ME

Home | Current Version | Previous Version | Text Only | Print | Product List | Glossary On
Versions: 1 2 3 4 5 6 7 8 9 10 11 12 13 14 15 16 17 18 19 20 21 22 23 24 25 26 27 28 29 30 31 32 33 34 35 36 37 38 39 40 41 42 43 44 45 46 47 48 49 50
000
ASUS41 KGYX 301710
RWRGYX
WEATHER ROUNDUP FOR MAINE AND NEW HAMPSHIRE
NATIONAL WEATHER SERVICE GRAY ME
100 PM EDT WED JUL 30 2014

MEZ002-005-006-010-012-015-018-020-021-024-026-027-029-301800-
MAINE

CITY           SKY/WX    TMP DP  RH WIND       PRES   REMARKS
PORTLAND       MOSUNNY   72  61  68 VRB5      30.00F
SANFORD        MOSUNNY   73  55  53 SW3       30.00F
BAR HARBOR     PTSUNNY   70  63  78 E6        30.02S VSB 1/2
WISCASSET      PTSUNNY   72  63  73 VRB6      30.01F
ROCKLAND       CLOUDY    64  63  94 E7        30.00F VSB 1/2
FRYEBURG       PTSUNNY   72  55  55 E5        30.01F
LEWISTONAUBURN CLOUDY    64  61  88 N3        30.02S
AUGUSTA        RAIN      63  62  97 SW8       30.02S FOG
WATERVILLE     CLOUDY    66  61  82 CALM      29.97F
BANGOR         PTSUNNY   73  58  59 CALM      30.01F
GREENVILLE       N/A     64  53  67 VRB5      30.04S
MILLINOCKET    CLOUDY    72  55  55 CALM      30.04F
HOULTON        PTSUNNY   74  53  48 SE7       30.02F
PRESQUE ISLE   PTSUNNY   72  50  46 CALM      30.05S
FRENCHVILLE    MOSUNNY   68  50  52 VRB5      30.04F
CARIBOU        CLOUDY    70  54  56 SE6       30.04S
$$

NHZ002-005-008-009-011-012-014-301800-
NEW HAMPSHIRE

CITY           SKY/WX    TMP DP  RH WIND       PRES   REMARKS
PORTSMOUTH     PTSUNNY   71  63  74 SE6       29.99S
ROCHESTER      MOSUNNY   74  57  55 CALM      29.99F
NASHUA         MOSUNNY   74  54  49 CALM      30.00F
MANCHESTER     PTSUNNY   75  54  47 VRB6      29.98F
CONCORD        MOSUNNY   74  54  49 VRB3      30.00F
LACONIA          N/A     72  52  49 E5        30.00F
PLYMOUTH       PTSUNNY   70  51  50 CALM      30.00F
BERLIN         CLOUDY    69  53  56 CALM      30.02F
WHITEFIELD     CLOUDY    69  51  52 W3        30.02F
JAFFREY        CLOUDY    69  53  56 NW6       30.02F
LEBANON        CLOUDY    70  54  56 S3        30.01F
MT WASHINGTON  CLOUDY    45  41  87 W5          N/A
$$

VTZ005-007-008-301800-
VERMONT

CITY           SKY/WX    TMP DP  RH WIND       PRES   REMARKS
ST JOHNSBURY     N/A     71  47  42 MISG      29.99F
MONTPELIER     CLOUDY    68  50  52 CALM      30.05F
BURLINGTON     MOSUNNY   75  51  43 S9        29.99F
$$

MAZ007-012-024-CTZ003-RIZ002-NYZ038-NYZ072-301800-
SOUTHERN NEW ENGLAND AND NY

CITY           SKY/WX    TMP DP  RH WIND       PRES   REMARKS
BOSTON         MOSUNNY   76  47  35 SW9       29.99F
WORCESTER      CLOUDY    69  53  56 W8        30.03S
NANTUCKET      SUNNY     73  63  70 SW9       30.00F
PROVIDENCE     PTSUNNY   77  47  34 W7        30.00F
HARTFORD       PTSUNNY   76  49  38 VRB6      29.99F
ALBANY         MOSUNNY   73  52  47 SW3       30.01F
NEW YORK CITY  MOSUNNY   78  45  30 N7        30.01F
$$

ANZ081-ANZ082-ANZ150-NHZ014-MEZ023>029-301800-
COASTAL MARINE OBSERVATIONS

STATION/POSITION TIME  TEMP    WIND        PRES    WAVE
                       AIR SEA DIR/SP/G            HT/PER
                 (UTC) (F)     (DEG/KT/KT) (MB)    (FT/S)
MOUNT DESERT ROC 1600   59                 1016.7
MATINICUS ROCK   1600          100/  5/  6 1015.9F
PORTLAND WX BUOY 1700   63 63   30/  6/  6 1015.7F   3/ 8
WELLS            1700   66 54  120/  7/  9 1014.8S
ISLE OF SHOALS   1600   60      70/  7/  8 1015.5F
JEFFREYS LEDGE   1700      65                N/A     3/ 9
CASHES LEDGE BUO 1700   67 67  140/  4/  6 1015.2F   4/ 9
$$

.............KEY..............
   WCI - WIND CHILL
   TC  - TEMPERATURE IN CELSIUS
   VSB - VISIBILITY IN MILES
   HX  - HEAT INDEX
   FAIR- INDICATES FEW OR NO CLOUDS BELOW 12,000 FT, WITH NO
         SIGNIFICANT WEATHER AND/OR OBSTRUCTIONS TO VISIBILITY.




USA.gov is the U.S. government's official web portal to all federal, state and local government web resources and services.